Flag for Canada Weather past 2 weeks in Edmundston, New Brunswick, Canada

Now
38 °F

Chilly.


Feels Like: 35 °F
Forecast: 38 / 54 °F
Wind: 5 mph from South

Location: St Leonard

Current Time: Sep 20, 2014 at 9:24:05 AM

Latest Report: Sep 20, 2014 at 8:00 AM


Visibility: N/A

Pressure: 30.19 "Hg

Humidity: 77%

Dew point: 32 °F

Location of EdmundstonLocation

Historic Weather in Edmundston — Graph

°F

Edmundston temperature yesterday

Maximum temperature yesterday: 51 °F (at 6:00 PM)
Minimum temperature yesterday: 29 °F (at 5:00 AM)
Average temperature yesterday: 38 °F

Past Weeks' High & Low Weather Summary

 TemperatureHumidityPressure
High79 °F (Sep 5, 2:00 PM)100% (Sep 7, 5:00 AM)30.44 "Hg (Sep 7, 5:00 AM)
Low29 °F (Sep 19, 5:00 AM)28% (Sep 19, 5:00 PM)29.62 "Hg (Sep 11, 8:00 PM)
Average51 °F78%30.07 "Hg
* Reported Sep 5 8:00 AM — Sep 20 8:00 AM, Edmundston, Weather by CustomWeather, © 2014

Note: Actual official high and low records may vary slightly from our data, if they occured in-between our weather recording intervals... More about our weather records

Advertising

Edmundston weather history for previous 24 hours

 ConditionsComfort  
Time TempWeatherWind HumidityBarometerVisibility
8:00 AM
Sep 20
38 °FChilly.5 mph77%30.19 "HgN/A
7:00 AM38 °FChilly.5 mph79%30.19 "HgN/A
6:00 AM38 °FChilly.5 mph71%30.21 "HgN/A
5:00 AM38 °FChilly.3 mph70%30.23 "HgN/A
4:00 AM39 °FChilly.3 mph65%30.25 "HgN/A
3:00 AM39 °FChilly.3 mph65%30.26 "HgN/A
2:00 AM38 °FChilly.2 mph71%30.29 "HgN/A
1:00 AM40 °FChilly.2 mph66%30.29 "HgN/A
12:00 AM38 °FChilly.2 mph73%30.30 "HgN/A
11:00 PM
Sep 19
38 °FChilly.2 mph71%30.31 "HgN/A
10:00 PM38 °FChilly.2 mph68%30.31 "HgN/A
9:00 PM35 °FChilly.1 mph85%30.33 "HgN/A
8:00 PM36 °FChilly.No wind83%30.32 "HgN/A
7:00 PM49 °FCool.1 mph39%30.33 "HgN/A
6:00 PM51 °FCool.2 mph34%30.33 "HgN/A
5:00 PM50 °FCool.5 mph28%30.34 "HgN/A
4:00 PM50 °FCool.3 mph37%30.34 "HgN/A
3:00 PM49 °FCool.5 mph36%30.35 "HgN/A
2:00 PM48 °FCool.6 mph43%30.35 "HgN/A
1:00 PM47 °FCool.6 mph41%30.34 "HgN/A
12:00 PM44 °FQuite cool.5 mph53%30.34 "HgN/A
11:00 AM41 °FQuite cool.5 mph64%30.35 "HgN/A
10:00 AM37 °FChilly.6 mph81%30.33 "HgN/A
9:00 AM34 °FChilly.2 mph88%30.31 "HgN/A
Weather by CustomWeather, © 2014

See weather overviewHow to use our weather pages